Year,Month,Day,Hour,Minute,Value (Times are PST for temperature in C)
2013,04,24,00,00,6.00
2013,04,24,00,01,6.00
2013,04,24,00,02,5.90
2013,04,24,00,03,5.90
2013,04,24,00,04,5.90
2013,04,24,00,05,5.80
2013,04,24,00,06,5.80
2013,04,24,00,07,5.80
2013,04,24,00,08,5.80
2013,04,24,00,09,5.80
2013,04,24,00,10,5.80
2013,04,24,00,11,5.70
2013,04,24,00,12,5.70
2013,04,24,00,13,5.70
2013,04,24,00,14,5.60
2013,04,24,00,15,5.60
2013,04,24,00,16,5.50
2013,04,24,00,17,5.50
2013,04,24,00,18,5.50
2013,04,24,00,19,5.50
2013,04,24,00,20,5.50
2013,04,24,00,21,5.50
2013,04,24,00,22,5.50
2013,04,24,00,23,5.50
2013,04,24,00,24,5.40
2013,04,24,00,25,5.40
2013,04,24,00,26,5.40
2013,04,24,00,27,5.40
2013,04,24,00,28,5.40
2013,04,24,00,29,5.40
2013,04,24,00,30,5.40
2013,04,24,00,31,5.50
2013,04,24,00,32,5.50
2013,04,24,00,33,5.50
2013,04,24,00,34,5.50
2013,04,24,00,35,5.50
2013,04,24,00,36,5.50
2013,04,24,00,37,5.50
2013,04,24,00,38,5.60
2013,04,24,00,39,5.50
2013,04,24,00,40,5.50
2013,04,24,00,41,5.50
2013,04,24,00,42,5.50
2013,04,24,00,43,5.50
2013,04,24,00,44,5.40
2013,04,24,00,45,5.40
2013,04,24,00,46,5.40
2013,04,24,00,47,5.40
2013,04,24,00,48,5.30
2013,04,24,00,49,5.30
2013,04,24,00,50,5.30
2013,04,24,00,51,5.30
2013,04,24,00,52,5.30
2013,04,24,00,53,5.30
2013,04,24,00,54,5.30
2013,04,24,00,55,5.30
2013,04,24,00,56,5.30
2013,04,24,00,57,5.30
2013,04,24,00,58,5.30
2013,04,24,00,59,5.30
2013,04,24,01,00,5.30
2013,04,24,01,01,5.30
2013,04,24,01,02,5.30
2013,04,24,01,03,5.20
2013,04,24,01,04,5.20
2013,04,24,01,05,5.20
2013,04,24,01,06,5.10
2013,04,24,01,07,5.10
2013,04,24,01,08,5.10
2013,04,24,01,09,5.10
2013,04,24,01,10,5.10
2013,04,24,01,11,5.10
2013,04,24,01,12,5.10
2013,04,24,01,13,4.90
2013,04,24,01,14,4.90
2013,04,24,01,15,4.90
2013,04,24,01,16,4.90
2013,04,24,01,17,4.90
2013,04,24,01,18,4.90
2013,04,24,01,19,4.80
2013,04,24,01,20,4.80
2013,04,24,01,21,4.80
2013,04,24,01,22,4.80
2013,04,24,01,23,4.80
2013,04,24,01,24,4.80
2013,04,24,01,25,4.80
2013,04,24,01,26,4.80
2013,04,24,01,27,4.80
2013,04,24,01,28,4.80
2013,04,24,01,29,4.80
2013,04,24,01,30,4.80
2013,04,24,01,31,4.70
2013,04,24,01,32,4.70
2013,04,24,01,33,4.70
2013,04,24,01,34,4.70
2013,04,24,01,35,4.60
2013,04,24,01,36,4.60
2013,04,24,01,37,4.60
2013,04,24,01,38,4.60
2013,04,24,01,39,4.60
2013,04,24,01,40,4.60
2013,04,24,01,41,4.60
2013,04,24,01,42,4.60
2013,04,24,01,43,4.60
2013,04,24,01,44,4.60
2013,04,24,01,45,4.60
2013,04,24,01,46,4.60
2013,04,24,01,47,4.60
2013,04,24,01,48,4.60
2013,04,24,01,49,4.60
2013,04,24,01,50,4.50
2013,04,24,01,51,4.50
2013,04,24,01,52,4.50
2013,04,24,01,53,4.50
2013,04,24,01,54,4.50
2013,04,24,01,55,4.50
2013,04,24,01,56,4.50
2013,04,24,01,57,4.50
2013,04,24,01,58,4.50
2013,04,24,01,59,4.50
2013,04,24,02,00,4.60
2013,04,24,02,01,4.60
2013,04,24,02,02,4.60
2013,04,24,02,03,4.50
2013,04,24,02,04,4.50
2013,04,24,02,05,4.40
2013,04,24,02,06,4.40
2013,04,24,02,07,4.40
2013,04,24,02,08,4.40
2013,04,24,02,09,4.40
2013,04,24,02,10,4.40
2013,04,24,02,11,4.40
2013,04,24,02,12,4.40
2013,04,24,02,13,4.40
2013,04,24,02,14,4.50
2013,04,24,02,15,4.50
2013,04,24,02,16,4.50
2013,04,24,02,17,4.50
2013,04,24,02,18,4.50
2013,04,24,02,19,4.50
2013,04,24,02,20,4.50
2013,04,24,02,21,4.50
2013,04,24,02,22,4.50
2013,04,24,02,23,4.50
2013,04,24,02,24,4.50
2013,04,24,02,25,4.50
2013,04,24,02,26,4.40
2013,04,24,02,27,4.40
2013,04,24,02,28,4.40
2013,04,24,02,29,4.40
2013,04,24,02,30,4.30
2013,04,24,02,31,4.30
2013,04,24,02,32,4.30
2013,04,24,02,33,4.30
2013,04,24,02,34,4.30
2013,04,24,02,35,4.30
2013,04,24,02,36,4.30
2013,04,24,02,37,4.30
2013,04,24,02,38,4.30
2013,04,24,02,39,4.30
2013,04,24,02,40,4.30
2013,04,24,02,41,4.30
2013,04,24,02,42,4.30
2013,04,24,02,43,4.30
2013,04,24,02,44,4.30
2013,04,24,02,45,4.30
2013,04,24,02,46,4.20
2013,04,24,02,47,4.20
2013,04,24,02,48,4.20
2013,04,24,02,49,4.20
2013,04,24,02,50,4.20
2013,04,24,02,51,4.20
2013,04,24,02,52,4.20
2013,04,24,02,53,4.20
2013,04,24,02,54,4.10
2013,04,24,02,55,4.10
2013,04,24,02,56,4.10
2013,04,24,02,57,4.10
2013,04,24,02,58,4.00
2013,04,24,02,59,4.00
2013,04,24,03,00,4.00
2013,04,24,03,01,4.00
2013,04,24,03,02,4.00
2013,04,24,03,03,4.00
2013,04,24,03,04,3.90
2013,04,24,03,05,3.90
2013,04,24,03,06,3.90
2013,04,24,03,07,3.80
2013,04,24,03,08,3.80
2013,04,24,03,09,3.80
2013,04,24,03,10,3.80
2013,04,24,03,11,3.80
2013,04,24,03,12,3.80
2013,04,24,03,13,3.80
2013,04,24,03,14,3.80
2013,04,24,03,15,3.80
2013,04,24,03,16,3.80
2013,04,24,03,17,3.80
2013,04,24,03,18,3.80
2013,04,24,03,19,3.80
2013,04,24,03,20,3.80
2013,04,24,03,21,3.90
2013,04,24,03,22,3.90
2013,04,24,03,23,3.90
2013,04,24,03,24,3.90
2013,04,24,03,25,3.90
2013,04,24,03,26,3.90
2013,04,24,03,27,3.90
2013,04,24,03,28,3.90
2013,04,24,03,29,3.90
2013,04,24,03,30,3.90
2013,04,24,03,31,3.90
2013,04,24,03,32,3.80
2013,04,24,03,33,3.80
2013,04,24,03,34,3.80
2013,04,24,03,35,3.80
2013,04,24,03,36,3.80
2013,04,24,03,37,3.80
2013,04,24,03,38,3.80
2013,04,24,03,39,3.80
2013,04,24,03,40,3.80
2013,04,24,03,41,3.80
2013,04,24,03,42,3.80
2013,04,24,03,43,3.80
2013,04,24,03,44,3.80
2013,04,24,03,45,3.80
2013,04,24,03,46,3.80
2013,04,24,03,47,3.80
2013,04,24,03,48,3.80
2013,04,24,03,49,3.80
2013,04,24,03,50,3.80
2013,04,24,03,51,3.70
2013,04,24,03,52,3.70
2013,04,24,03,53,3.70
2013,04,24,03,54,3.70
2013,04,24,03,55,3.70
2013,04,24,03,56,3.80
2013,04,24,03,57,3.80
2013,04,24,03,58,3.80
2013,04,24,03,59,3.80
2013,04,24,04,00,3.80
2013,04,24,04,01,3.80
2013,04,24,04,02,3.80
2013,04,24,04,03,3.70
2013,04,24,04,04,3.70
2013,04,24,04,05,3.70
2013,04,24,04,06,3.70
2013,04,24,04,07,3.60
2013,04,24,04,08,3.60
2013,04,24,04,09,3.60
2013,04,24,04,10,3.60
2013,04,24,04,11,3.60
2013,04,24,04,12,3.60
2013,04,24,04,13,3.50
2013,04,24,04,14,3.50
2013,04,24,04,15,3.50
2013,04,24,04,16,3.50
2013,04,24,04,17,3.40
2013,04,24,04,18,3.40
2013,04,24,04,19,3.40
2013,04,24,04,20,3.40
2013,04,24,04,21,3.30
2013,04,24,04,22,3.30
2013,04,24,04,23,3.30
2013,04,24,04,24,3.30
2013,04,24,04,25,3.30
2013,04,24,04,26,3.30
2013,04,24,04,27,3.30
2013,04,24,04,28,3.30
2013,04,24,04,29,3.30
2013,04,24,04,30,3.30
2013,04,24,04,31,3.30
2013,04,24,04,32,3.30
2013,04,24,04,33,3.30
2013,04,24,04,34,3.30
2013,04,24,04,35,3.30
2013,04,24,04,36,3.30
2013,04,24,04,37,3.30
2013,04,24,04,38,3.30
2013,04,24,04,39,3.30
2013,04,24,04,40,3.30
2013,04,24,04,41,3.30
2013,04,24,04,42,3.30
2013,04,24,04,43,3.30
2013,04,24,04,44,3.30
2013,04,24,04,45,3.20
2013,04,24,04,46,3.20
2013,04,24,04,47,3.20
2013,04,24,04,48,3.20
2013,04,24,04,49,3.20
2013,04,24,04,50,3.30
2013,04,24,04,51,3.30
2013,04,24,04,52,3.40
2013,04,24,04,53,3.40
2013,04,24,04,54,3.50
2013,04,24,04,55,3.50
2013,04,24,04,56,3.50
2013,04,24,04,57,3.50
2013,04,24,04,58,3.50
2013,04,24,04,59,3.50
2013,04,24,05,00,3.50
2013,04,24,05,01,3.60
2013,04,24,05,02,3.60
2013,04,24,05,03,3.60
2013,04,24,05,04,3.60
2013,04,24,05,05,3.60
2013,04,24,05,06,3.50
2013,04,24,05,07,3.50
2013,04,24,05,08,3.50
2013,04,24,05,09,3.50
2013,04,24,05,10,3.40
2013,04,24,05,11,3.40
2013,04,24,05,12,3.30
2013,04,24,05,13,3.30
2013,04,24,05,14,3.30
2013,04,24,05,15,3.30
2013,04,24,05,16,3.30
2013,04,24,05,17,3.30
2013,04,24,05,18,3.30
2013,04,24,05,19,3.30
2013,04,24,05,20,3.30
2013,04,24,05,21,3.30
2013,04,24,05,22,3.30
2013,04,24,05,23,3.30
2013,04,24,05,24,3.40
2013,04,24,05,25,3.40
2013,04,24,05,26,3.50
2013,04,24,05,27,3.50
2013,04,24,05,28,3.50
2013,04,24,05,29,3.60
2013,04,24,05,30,3.60
2013,04,24,05,31,3.70
2013,04,24,05,32,3.70
2013,04,24,05,33,3.70
2013,04,24,05,34,3.60
2013,04,24,05,35,3.60
2013,04,24,05,36,3.50
2013,04,24,05,37,3.40
2013,04,24,05,38,3.30
2013,04,24,05,39,3.30
2013,04,24,05,40,3.20
2013,04,24,05,41,3.20
2013,04,24,05,42,3.10
2013,04,24,05,43,3.10
2013,04,24,05,44,3.10
2013,04,24,05,45,3.10
2013,04,24,05,46,3.00
2013,04,24,05,47,2.90
2013,04,24,05,48,2.90
2013,04,24,05,49,2.90
2013,04,24,05,50,2.90
2013,04,24,05,51,2.90
2013,04,24,05,52,2.90
2013,04,24,05,53,2.90
2013,04,24,05,54,2.90
2013,04,24,05,55,2.90
2013,04,24,05,56,2.90
2013,04,24,05,57,2.90
2013,04,24,05,58,2.90
2013,04,24,05,59,2.80
2013,04,24,06,00,2.80
2013,04,24,06,01,2.70
2013,04,24,06,02,2.70
2013,04,24,06,03,2.70
2013,04,24,06,04,2.70
2013,04,24,06,05,2.70
2013,04,24,06,06,2.70
2013,04,24,06,07,2.70
2013,04,24,06,08,2.70
2013,04,24,06,09,2.70
2013,04,24,06,10,2.70
2013,04,24,06,11,2.70
2013,04,24,06,12,2.70
2013,04,24,06,13,2.70
2013,04,24,06,14,2.70
2013,04,24,06,15,2.80
2013,04,24,06,16,2.80
2013,04,24,06,17,2.80
2013,04,24,06,18,2.90
2013,04,24,06,19,2.90
2013,04,24,06,20,2.90
2013,04,24,06,21,2.90
2013,04,24,06,22,2.90
2013,04,24,06,23,2.90
2013,04,24,06,24,2.80
2013,04,24,06,25,2.80
2013,04,24,06,26,2.80
2013,04,24,06,27,2.80
2013,04,24,06,28,2.80
2013,04,24,06,29,2.90
2013,04,24,06,30,2.90
2013,04,24,06,31,2.90
2013,04,24,06,32,2.90
2013,04,24,06,33,2.90
2013,04,24,06,34,2.90
2013,04,24,06,35,2.90
2013,04,24,06,36,2.90
2013,04,24,06,37,2.90
2013,04,24,06,38,2.90
2013,04,24,06,39,2.90
2013,04,24,06,40,2.90
2013,04,24,06,41,2.90
2013,04,24,06,42,2.90
2013,04,24,06,43,3.00
2013,04,24,06,44,3.10
2013,04,24,06,45,3.10
2013,04,24,06,46,3.10
2013,04,24,06,47,3.10
2013,04,24,06,48,3.20
2013,04,24,06,49,3.20
2013,04,24,06,50,3.30
2013,04,24,06,51,3.30
2013,04,24,06,52,3.40
2013,04,24,06,53,3.50
2013,04,24,06,54,3.50
2013,04,24,06,55,3.60
2013,04,24,06,56,3.60
2013,04,24,06,57,3.70
2013,04,24,06,58,3.70
2013,04,24,06,59,3.80
2013,04,24,07,00,3.80
2013,04,24,07,01,3.80
2013,04,24,07,02,3.90
2013,04,24,07,03,4.00
2013,04,24,07,04,4.00
2013,04,24,07,05,4.10
2013,04,24,07,06,4.10
2013,04,24,07,07,4.20
2013,04,24,07,08,4.20
2013,04,24,07,09,4.30
2013,04,24,07,10,4.30
2013,04,24,07,11,4.30
2013,04,24,07,12,4.20
2013,04,24,07,13,4.20
2013,04,24,07,14,4.10
2013,04,24,07,15,4.10
2013,04,24,07,16,4.20
2013,04,24,07,17,4.20
2013,04,24,07,18,4.30
2013,04,24,07,19,4.40
2013,04,24,07,20,4.40
2013,04,24,07,21,4.50
2013,04,24,07,22,4.50
2013,04,24,07,23,4.50
2013,04,24,07,24,4.60
2013,04,24,07,25,4.60
2013,04,24,07,26,4.60
2013,04,24,07,27,4.60
2013,04,24,07,28,4.70
2013,04,24,07,29,4.80
2013,04,24,07,30,4.90
2013,04,24,07,31,5.00
2013,04,24,07,32,5.10
2013,04,24,07,33,5.20
2013,04,24,07,34,5.30
2013,04,24,07,35,5.50
2013,04,24,07,36,5.70
2013,04,24,07,37,5.90
2013,04,24,07,38,6.00
2013,04,24,07,39,6.20
2013,04,24,07,40,6.30
2013,04,24,07,41,6.50
2013,04,24,07,42,6.60
2013,04,24,07,43,6.70
2013,04,24,07,44,6.80
2013,04,24,07,45,6.90
2013,04,24,07,46,7.00
2013,04,24,07,47,7.10
2013,04,24,07,48,7.10
2013,04,24,07,49,7.20
2013,04,24,07,50,7.40
2013,04,24,07,51,7.60
2013,04,24,07,52,7.70
2013,04,24,07,53,7.90
2013,04,24,07,54,8.10
2013,04,24,07,55,8.30
2013,04,24,07,56,8.40
2013,04,24,07,57,8.60
2013,04,24,07,58,8.70
2013,04,24,07,59,8.80
2013,04,24,08,00,8.90
2013,04,24,08,01,9.00
2013,04,24,08,02,9.20
2013,04,24,08,03,9.30
2013,04,24,08,04,9.40
2013,04,24,08,05,9.40
2013,04,24,08,06,9.40
2013,04,24,08,07,9.50
2013,04,24,08,08,9.50
2013,04,24,08,09,9.60
2013,04,24,08,10,9.60
2013,04,24,08,11,9.70
2013,04,24,08,12,9.70
2013,04,24,08,13,9.80
2013,04,24,08,14,9.90
2013,04,24,08,15,10.00
2013,04,24,08,16,10.20
2013,04,24,08,17,10.30
2013,04,24,08,18,10.40
2013,04,24,08,19,10.40
2013,04,24,08,20,10.50
2013,04,24,08,21,10.60
2013,04,24,08,22,10.70
2013,04,24,08,23,10.80
2013,04,24,08,24,10.90
2013,04,24,08,25,11.00
2013,04,24,08,26,11.10
2013,04,24,08,27,11.20
2013,04,24,08,28,11.30
2013,04,24,08,29,11.40
2013,04,24,08,30,11.50
2013,04,24,08,31,11.60
2013,04,24,08,32,11.60
2013,04,24,08,33,11.70
2013,04,24,08,34,11.80
2013,04,24,08,35,11.80
2013,04,24,08,36,11.90
2013,04,24,08,37,12.00
2013,04,24,08,38,12.10
2013,04,24,08,39,12.10
2013,04,24,08,40,12.20
2013,04,24,08,41,12.20
2013,04,24,08,42,12.20
2013,04,24,08,43,12.30
2013,04,24,08,44,12.50
2013,04,24,08,45,12.50
2013,04,24,08,46,12.60
2013,04,24,08,47,12.70
2013,04,24,08,48,12.80
2013,04,24,08,49,12.80
2013,04,24,08,50,12.80
2013,04,24,08,51,12.90
2013,04,24,08,52,12.90
2013,04,24,08,53,13.00
2013,04,24,08,54,13.00
2013,04,24,08,55,13.10
2013,04,24,08,56,13.10
2013,04,24,08,57,13.20
2013,04,24,08,58,13.30
2013,04,24,08,59,13.30
2013,04,24,09,00,13.40
2013,04,24,09,01,13.40
2013,04,24,09,02,13.50
2013,04,24,09,03,13.60
2013,04,24,09,04,13.60
2013,04,24,09,05,13.60
2013,04,24,09,06,13.50
2013,04,24,09,07,13.50
2013,04,24,09,08,13.60
2013,04,24,09,09,13.60
2013,04,24,09,10,13.60
2013,04,24,09,11,13.60
2013,04,24,09,12,13.70
2013,04,24,09,13,13.70
2013,04,24,09,14,13.80
2013,04,24,09,15,13.80
2013,04,24,09,16,13.90
2013,04,24,09,17,13.90
2013,04,24,09,18,13.90
2013,04,24,09,19,14.00
2013,04,24,09,20,13.90
2013,04,24,09,21,13.80
2013,04,24,09,22,13.70
2013,04,24,09,23,13.70
2013,04,24,09,24,13.70
2013,04,24,09,25,13.70
2013,04,24,09,26,13.60
2013,04,24,09,27,13.50
2013,04,24,09,28,13.50
2013,04,24,09,29,13.50
2013,04,24,09,30,13.50
2013,04,24,09,31,13.50
2013,04,24,09,32,13.50
2013,04,24,09,33,13.50
2013,04,24,09,34,13.50
2013,04,24,09,35,13.60
2013,04,24,09,36,13.60
2013,04,24,09,37,13.60
2013,04,24,09,38,13.60
2013,04,24,09,39,13.50
2013,04,24,09,40,13.50
2013,04,24,09,41,13.60
2013,04,24,09,42,13.60
2013,04,24,09,43,13.70
2013,04,24,09,44,13.70
2013,04,24,09,45,13.70
2013,04,24,09,46,13.80
2013,04,24,09,47,13.80
2013,04,24,09,48,13.70
2013,04,24,09,49,13.70
2013,04,24,09,50,13.70
2013,04,24,09,51,13.80
2013,04,24,09,52,13.80
2013,04,24,09,53,13.90
2013,04,24,09,54,13.80
2013,04,24,09,55,13.90
2013,04,24,09,56,14.00
2013,04,24,09,57,14.00
2013,04,24,09,58,14.00
2013,04,24,09,59,14.00
2013,04,24,10,00,14.00
2013,04,24,10,01,14.00
2013,04,24,10,02,14.10
2013,04,24,10,03,14.20
2013,04,24,10,04,14.30
2013,04,24,10,05,14.30
2013,04,24,10,06,14.30
2013,04,24,10,07,14.40
2013,04,24,10,08,14.40
2013,04,24,10,09,14.30
2013,04,24,10,10,14.20
2013,04,24,10,11,14.10
2013,04,24,10,12,14.10
2013,04,24,10,13,14.10
2013,04,24,10,14,14.20
2013,04,24,10,15,14.20
2013,04,24,10,16,14.10
2013,04,24,10,17,14.00
2013,04,24,10,18,13.90
2013,04,24,10,19,13.80
2013,04,24,10,20,13.70
2013,04,24,10,21,13.60
2013,04,24,10,22,13.60
2013,04,24,10,23,13.70
2013,04,24,10,24,13.80
2013,04,24,10,25,13.90
2013,04,24,10,26,13.90
2013,04,24,10,27,13.90
2013,04,24,10,28,13.90
2013,04,24,10,29,14.00
2013,04,24,10,30,14.10
2013,04,24,10,31,14.10
2013,04,24,10,32,14.10
2013,04,24,10,33,14.20
2013,04,24,10,34,14.20
2013,04,24,10,35,14.20
2013,04,24,10,36,14.30
2013,04,24,10,37,14.30
2013,04,24,10,38,14.20
2013,04,24,10,39,14.20
2013,04,24,10,40,14.10
2013,04,24,10,41,14.00
2013,04,24,10,42,14.00
2013,04,24,10,43,13.90
2013,04,24,10,44,13.80
2013,04,24,10,45,13.90
2013,04,24,10,46,14.00
2013,04,24,10,47,14.00
2013,04,24,10,48,14.00
2013,04,24,10,49,14.00
2013,04,24,10,50,14.10
2013,04,24,10,51,14.20
2013,04,24,10,52,14.30
2013,04,24,10,53,14.50
2013,04,24,10,54,14.60
2013,04,24,10,55,14.80
2013,04,24,10,56,14.80
2013,04,24,10,57,14.80
2013,04,24,10,58,14.80
2013,04,24,10,59,14.70
2013,04,24,11,00,14.60
2013,04,24,11,01,14.70
2013,04,24,11,02,14.80
2013,04,24,11,03,14.80
2013,04,24,11,04,14.90
2013,04,24,11,05,15.00
2013,04,24,11,06,15.00
2013,04,24,11,07,15.00
2013,04,24,11,08,15.00
2013,04,24,11,09,14.90
2013,04,24,11,10,14.80
2013,04,24,11,11,14.80
2013,04,24,11,12,14.80
2013,04,24,11,13,14.80
2013,04,24,11,14,14.90
2013,04,24,11,15,15.00
2013,04,24,11,16,15.10
2013,04,24,11,17,15.20
2013,04,24,11,18,15.30
2013,04,24,11,19,15.30
2013,04,24,11,20,15.30
2013,04,24,11,21,15.30
2013,04,24,11,22,15.30
2013,04,24,11,23,15.40
2013,04,24,11,24,15.50
2013,04,24,11,25,15.60
2013,04,24,11,26,15.60
2013,04,24,11,27,15.60
2013,04,24,11,28,15.50
2013,04,24,11,29,15.40
2013,04,24,11,30,15.50
2013,04,24,11,31,15.60
2013,04,24,11,32,15.70
2013,04,24,11,33,15.70
2013,04,24,11,34,15.60
2013,04,24,11,35,15.50
2013,04,24,11,36,15.50
2013,04,24,11,37,15.50
2013,04,24,11,38,15.60
2013,04,24,11,39,15.70
2013,04,24,11,40,15.80
2013,04,24,11,41,15.80
2013,04,24,11,42,15.80
2013,04,24,11,43,15.90
2013,04,24,11,44,16.10
2013,04,24,11,45,16.20
2013,04,24,11,46,16.30
2013,04,24,11,47,16.30
2013,04,24,11,48,16.30
2013,04,24,11,49,16.40
2013,04,24,11,50,16.40
2013,04,24,11,51,16.40
2013,04,24,11,52,16.40
2013,04,24,11,53,16.30
2013,04,24,11,54,16.30
2013,04,24,11,55,16.30
2013,04,24,11,56,16.30
2013,04,24,11,57,16.30
2013,04,24,11,58,16.30
2013,04,24,11,59,16.30
2013,04,24,12,00,16.30
2013,04,24,12,01,16.50
2013,04,24,12,02,16.60
2013,04,24,12,03,16.80
2013,04,24,12,04,16.80
2013,04,24,12,05,16.90
2013,04,24,12,06,16.80
2013,04,24,12,07,16.70
2013,04,24,12,08,16.60
2013,04,24,12,09,16.40
2013,04,24,12,10,16.40
2013,04,24,12,11,16.30
2013,04,24,12,12,16.20
2013,04,24,12,13,16.00
2013,04,24,12,14,15.90
2013,04,24,12,15,15.90
2013,04,24,12,16,16.10
2013,04,24,12,17,16.20
2013,04,24,12,18,16.30
2013,04,24,12,19,16.40
2013,04,24,12,20,16.40
2013,04,24,12,21,16.40
2013,04,24,12,22,16.50
2013,04,24,12,23,16.60
2013,04,24,12,24,16.70
2013,04,24,12,25,16.70
2013,04,24,12,26,16.90
2013,04,24,12,27,17.00
2013,04,24,12,28,17.20
2013,04,24,12,29,17.10
2013,04,24,12,30,17.10
2013,04,24,12,31,17.00
2013,04,24,12,32,17.00
2013,04,24,12,33,17.00
2013,04,24,12,34,17.00
2013,04,24,12,35,17.10
2013,04,24,12,36,17.00
2013,04,24,12,37,17.00
2013,04,24,12,38,17.10
2013,04,24,12,39,17.20
2013,04,24,12,40,17.30
2013,04,24,12,41,17.30
2013,04,24,12,42,17.40
2013,04,24,12,43,17.40
2013,04,24,12,44,17.30
2013,04,24,12,45,17.30
2013,04,24,12,46,17.20
2013,04,24,12,47,17.10
2013,04,24,12,48,17.00
2013,04,24,12,49,17.00
2013,04,24,12,50,16.90
2013,04,24,12,51,16.90
2013,04,24,12,52,16.90
2013,04,24,12,53,16.90
2013,04,24,12,54,16.90
2013,04,24,12,55,16.90
2013,04,24,12,56,16.70
2013,04,24,12,57,16.60
2013,04,24,12,58,16.60
2013,04,24,12,59,16.70
2013,04,24,13,00,16.80
2013,04,24,13,01,16.80
2013,04,24,13,02,16.80
2013,04,24,13,03,16.90
2013,04,24,13,04,17.00
2013,04,24,13,05,17.00
2013,04,24,13,06,17.00
2013,04,24,13,07,17.00
2013,04,24,13,08,17.00
2013,04,24,13,09,17.10
2013,04,24,13,10,17.20
2013,04,24,13,11,17.30
2013,04,24,13,12,17.40
2013,04,24,13,13,17.30
2013,04,24,13,14,17.30
2013,04,24,13,15,17.10
2013,04,24,13,16,17.00
2013,04,24,13,17,16.90
2013,04,24,13,18,16.80
2013,04,24,13,19,16.70
2013,04,24,13,20,16.80
2013,04,24,13,21,16.80
2013,04,24,13,22,16.80
2013,04,24,13,23,16.90
2013,04,24,13,24,16.90
2013,04,24,13,25,17.00
2013,04,24,13,26,16.90
2013,04,24,13,27,17.00
2013,04,24,13,28,17.10
2013,04,24,13,29,17.30
2013,04,24,13,30,17.40
2013,04,24,13,31,17.50
2013,04,24,13,32,17.70
2013,04,24,13,33,17.80
2013,04,24,13,34,17.90
2013,04,24,13,35,17.90
2013,04,24,13,36,17.90
2013,04,24,13,37,17.70
2013,04,24,13,38,17.70
2013,04,24,13,39,17.70
2013,04,24,13,40,17.70
2013,04,24,13,41,17.70
2013,04,24,13,42,17.70
2013,04,24,13,43,17.60
2013,04,24,13,44,17.60
2013,04,24,13,45,17.60
2013,04,24,13,46,17.60
2013,04,24,13,47,17.60
2013,04,24,13,48,17.50
2013,04,24,13,49,17.40
2013,04,24,13,50,17.30
2013,04,24,13,51,17.30
2013,04,24,13,52,17.30
2013,04,24,13,53,17.10
2013,04,24,13,54,17.00
2013,04,24,13,55,17.00
2013,04,24,13,56,17.00
2013,04,24,13,57,17.10
2013,04,24,13,58,17.10
2013,04,24,13,59,17.10
2013,04,24,14,00,17.30
2013,04,24,14,01,17.30
2013,04,24,14,02,17.30
2013,04,24,14,03,17.20
2013,04,24,14,04,17.20
2013,04,24,14,05,17.30
2013,04,24,14,06,17.40
2013,04,24,14,07,17.50
2013,04,24,14,08,17.50
2013,04,24,14,09,17.50
2013,04,24,14,10,17.40
2013,04,24,14,11,17.40
2013,04,24,14,12,17.40
2013,04,24,14,13,17.20
2013,04,24,14,14,17.20
2013,04,24,14,15,17.30
2013,04,24,14,16,17.40
2013,04,24,14,17,17.50
2013,04,24,14,18,17.40
2013,04,24,14,19,17.30
2013,04,24,14,20,17.30
2013,04,24,14,21,17.30
2013,04,24,14,22,17.40
2013,04,24,14,23,17.40
2013,04,24,14,24,17.40
2013,04,24,14,25,17.60
2013,04,24,14,26,17.70
2013,04,24,14,27,17.70
2013,04,24,14,28,17.60
2013,04,24,14,29,17.50
2013,04,24,14,30,17.50
2013,04,24,14,31,17.40
2013,04,24,14,32,17.40
2013,04,24,14,33,17.40
2013,04,24,14,34,17.40
2013,04,24,14,35,17.40
2013,04,24,14,36,17.40
2013,04,24,14,37,17.50
2013,04,24,14,38,17.50
2013,04,24,14,39,17.50
2013,04,24,14,40,17.60
2013,04,24,14,41,17.70
2013,04,24,14,42,17.80
2013,04,24,14,43,17.90
2013,04,24,14,44,18.10
2013,04,24,14,45,18.20
2013,04,24,14,46,18.30
2013,04,24,14,47,18.40
2013,04,24,14,48,18.40
2013,04,24,14,49,18.40
2013,04,24,14,50,18.30
2013,04,24,14,51,18.30
2013,04,24,14,52,18.10
2013,04,24,14,53,18.00
2013,04,24,14,54,17.90
2013,04,24,14,55,18.00
2013,04,24,14,56,18.10
2013,04,24,14,57,18.10
2013,04,24,14,58,18.00
2013,04,24,14,59,17.90
2013,04,24,15,00,17.80
2013,04,24,15,01,17.90
2013,04,24,15,02,17.90
2013,04,24,15,03,17.90
2013,04,24,15,04,17.90
2013,04,24,15,05,17.90
2013,04,24,15,06,17.80
2013,04,24,15,07,17.70
2013,04,24,15,08,17.70
2013,04,24,15,09,17.70
2013,04,24,15,10,17.70
2013,04,24,15,11,17.70
2013,04,24,15,12,17.80
2013,04,24,15,13,17.80
2013,04,24,15,14,17.90
2013,04,24,15,15,17.80
2013,04,24,15,16,17.90
2013,04,24,15,17,17.90
2013,04,24,15,18,17.80
2013,04,24,15,19,17.80
2013,04,24,15,20,17.80
2013,04,24,15,21,17.80
2013,04,24,15,22,17.70
2013,04,24,15,23,17.70
2013,04,24,15,24,17.60
2013,04,24,15,25,17.50
2013,04,24,15,26,17.50
2013,04,24,15,27,17.50
2013,04,24,15,28,17.60
2013,04,24,15,29,17.70
2013,04,24,15,30,17.80
2013,04,24,15,31,17.90
2013,04,24,15,32,17.90
2013,04,24,15,33,17.90
2013,04,24,15,34,17.80
2013,04,24,15,35,17.70
2013,04,24,15,36,17.70
2013,04,24,15,37,17.70
2013,04,24,15,38,17.70
2013,04,24,15,39,17.70
2013,04,24,15,40,17.80
2013,04,24,15,41,17.80
2013,04,24,15,42,17.90
2013,04,24,15,43,18.00
2013,04,24,15,44,18.10
2013,04,24,15,45,18.00
2013,04,24,15,46,17.90
2013,04,24,15,47,17.90
2013,04,24,15,48,17.80
2013,04,24,15,49,17.70
2013,04,24,15,50,17.70
2013,04,24,15,51,17.80
2013,04,24,15,52,17.80
2013,04,24,15,53,17.90
2013,04,24,15,54,18.00
2013,04,24,15,55,18.10
2013,04,24,15,56,18.20
2013,04,24,15,57,18.20
2013,04,24,15,58,18.20
2013,04,24,15,59,18.20
2013,04,24,16,00,18.20
2013,04,24,16,01,18.10
2013,04,24,16,02,18.10
2013,04,24,16,03,18.00
2013,04,24,16,04,17.90
2013,04,24,16,05,17.90
2013,04,24,16,06,17.90
2013,04,24,16,07,17.90
2013,04,24,16,08,17.90
2013,04,24,16,09,17.90
2013,04,24,16,10,17.90
2013,04,24,16,11,17.90
2013,04,24,16,12,17.90
2013,04,24,16,13,17.90
2013,04,24,16,14,17.90
2013,04,24,16,15,17.90
2013,04,24,16,16,18.00
2013,04,24,16,17,18.10
2013,04,24,16,18,18.10
2013,04,24,16,19,18.00
2013,04,24,16,20,17.90
2013,04,24,16,21,17.80
2013,04,24,16,22,17.80
2013,04,24,16,23,17.70
2013,04,24,16,24,17.70
2013,04,24,16,25,17.60
2013,04,24,16,26,17.60
2013,04,24,16,27,17.70
2013,04,24,16,28,17.70
2013,04,24,16,29,17.80
2013,04,24,16,30,17.80
2013,04,24,16,31,17.70
2013,04,24,16,32,17.60
2013,04,24,16,33,17.50
2013,04,24,16,34,17.40
2013,04,24,16,35,17.40
2013,04,24,16,36,17.50
2013,04,24,16,37,17.50
2013,04,24,16,38,17.50
2013,04,24,16,39,17.50
2013,04,24,16,40,17.50
2013,04,24,16,41,17.50
2013,04,24,16,42,17.40
2013,04,24,16,43,17.30
2013,04,24,16,44,17.30
2013,04,24,16,45,17.10
2013,04,24,16,46,17.10
2013,04,24,16,47,17.10
2013,04,24,16,48,17.10
2013,04,24,16,49,17.00
2013,04,24,16,50,17.00
2013,04,24,16,51,17.00
2013,04,24,16,52,17.00
2013,04,24,16,53,16.90
2013,04,24,16,54,16.90
2013,04,24,16,55,16.80
2013,04,24,16,56,16.80
2013,04,24,16,57,16.80
2013,04,24,16,58,16.70
2013,04,24,16,59,16.60
2013,04,24,17,00,16.50
2013,04,24,17,01,16.40
2013,04,24,17,02,16.40
2013,04,24,17,03,16.40
2013,04,24,17,04,16.40
2013,04,24,17,05,16.40
2013,04,24,17,06,16.30
2013,04,24,17,07,16.30
2013,04,24,17,08,16.30
2013,04,24,17,09,16.30
2013,04,24,17,10,16.20
2013,04,24,17,11,16.30
2013,04,24,17,12,16.30
2013,04,24,17,13,16.40
2013,04,24,17,14,16.40
2013,04,24,17,15,16.40
2013,04,24,17,16,16.40
2013,04,24,17,17,16.40
2013,04,24,17,18,16.40
2013,04,24,17,19,16.40
2013,04,24,17,20,16.40
2013,04,24,17,21,16.40
2013,04,24,17,22,16.40
2013,04,24,17,23,16.40
2013,04,24,17,24,16.30
2013,04,24,17,25,16.30
2013,04,24,17,26,16.30
2013,04,24,17,27,16.30
2013,04,24,17,28,16.30
2013,04,24,17,29,16.30
2013,04,24,17,30,16.30
2013,04,24,17,31,16.40
2013,04,24,17,32,16.40
2013,04,24,17,33,16.40
2013,04,24,17,34,16.40
2013,04,24,17,35,16.40
2013,04,24,17,36,16.40
2013,04,24,17,37,16.30
2013,04,24,17,38,16.30
2013,04,24,17,39,16.30
2013,04,24,17,40,16.40